START_TIME,STEP,MOV.,M6,t_acc.,M7,t_acc.,M19,t_acc.,H36,t_acc.
1979-07-26 21:00:26.410 ,0,0,0.,12.0,0.,12.0,0.,12.0,0.,12.0
1979-07-26 21:00:38.410 ,0,0,0.,12.0,0.,12.0,0.,12.0,0.,12.0
1979-07-26 21:00:50.410 ,0,1,0.,12.0,0.,12.0,0.,12.0,0.,12.0
1979-07-26 21:01:02.410 ,0,1,0.,12.0,0.,12.0,0.,12.0,0.,12.0
1979-07-26 21:01:14.410 ,0,0,0.,12.0,0.,12.0,0.,12.0,0.,12.0
1979-07-26 21:01:26.410 ,0,0,0.,12.0,0.,12.0,0.,12.0,0.,12.0
1979-07-26 21:01:38.400 ,1,1,0.,12.0,0.,12.0,0.,12.0,0.,12.0
1979-07-26 21:01:50.410 ,1,1,0.,12.0,0.,12.0,0.,12.0,0.,12.0
1979-07-26 21:02:02.400 ,1,0,0.,12.0,0.,12.0,0.,12.0,0.,12.0
1979-07-26 21:02:14.400 ,1,0,0.,12.0,0.,12.0,0.,12.0,0.,12.0
1979-07-26 21:02:26.400 ,2,1,0.,12.0,0.,12.0,0.,12.0,0.,12.0
1979-07-26 21:02:38.400 ,2,1,0.,12.0,0.,12.0,0.,12.0,0.,12.0
1979-07-26 21:02:50.400 ,2,0,0.,12.0,0.,12.0,0.,12.0,0.,12.0
1979-07-26 21:03:02.400 ,2,0,0.,12.0,0.,12.0,0.,12.0,0.,12.0
1979-07-26 21:03:14.400 ,3,1,0.,12.0,0.,12.0,0.,12.0,0.,12.0
1979-07-26 21:03:26.400 ,3,1,0.,12.0,0.,12.0,0.,12.0,0.,12.0
1979-07-26 21:03:38.400 ,3,0,0.,12.0,0.,12.0,0.,12.0,0.,12.0
1979-07-26 21:03:50.400 ,3,0,0.,12.0,0.,12.0,0.,12.0,0.,12.0
1979-07-26 21:04:02.400 ,4,1,0.,12.0,0.,12.0,0.,12.0,0.,12.0
1979-07-26 21:04:14.400 ,4,1,0.,12.0,0.,12.0,0.,12.0,0.,12.0
1979-07-26 21:04:26.400 ,4,0,0.,12.0,0.,12.0,0.,12.0,0.,12.0
1979-07-26 21:04:38.400 ,4,0,0.,12.0,0.,12.0,0.,12.0,0.,12.0
1979-07-26 21:04:50.400 ,5,1,0.,12.0,0.,12.0,0.,12.0,0.,12.0
1979-07-26 21:05:02.400 ,5,1,0.,12.0,0.,12.0,0.,12.0,0.,12.0
1979-07-26 21:05:14.400 ,5,0,0.,12.0,0.,12.0,0.,12.0,0.,12.0
1979-07-26 21:05:26.400 ,5,0,0.,12.0,0.,12.0,0.,12.0,0.,12.0
1979-07-26 21:05:38.400 ,6,1,0.,12.0,0.,12.0,0.,12.0,0.,12.0
1979-07-26 21:05:50.400 ,6,1,0.,12.0,0.,12.0,0.,12.0,0.,12.0
1979-07-26 21:06:02.400 ,6,0,0.,12.0,0.,12.0,0.,12.0,0.,12.0
1979-07-26 21:06:14.400 ,6,0,0.,12.0,0.,12.0,0.,12.0,0.,12.0
1979-07-26 21:06:26.400 ,7,0,0.,12.0,0.,12.0,0.,12.0,0.,12.0
1979-07-26 21:06:38.400 ,7,0,0.,12.0,0.,12.0,0.,12.0,0.,12.0
1979-07-26 21:06:50.400 ,7,0,0.,12.0,0.,12.0,0.,12.0,0.,12.0
1979-07-26 21:07:02.400 ,7,0,0.,12.0,0.,12.0,0.,12.0,0.,12.0
1979-07-26 21:07:14.400 ,4,1,0.,12.0,0.,12.0,0.,12.0,0.,12.0
1979-07-26 21:07:26.400 ,4,1,0.,12.0,0.,12.0,0.,12.0,0.,12.0
1979-07-26 21:07:38.400 ,0,1,0.,12.0,0.,12.0,0.,12.0,0.,12.0
1979-07-26 21:07:50.400 ,0,1,0.,12.0,0.,12.0,0.,12.0,0.,12.0
1979-07-26 21:08:02.400 ,3,1,0.,12.0,0.,12.0,0.,12.0,0.,12.0
1979-07-26 21:08:14.400 ,3,1,0.,12.0,0.,12.0,0.,12.0,0.,12.0
1979-07-26 21:08:26.400 ,7,1,0.,12.0,0.,12.0,0.,12.0,0.,12.0
1979-07-26 21:08:38.410 ,7,1,0.,12.0,0.,12.0,0.,12.0,0.,12.0
1979-07-26 21:08:50.400 ,4,1,0.,12.0,0.,12.0,0.,12.0,0.,12.0
1979-07-26 21:09:02.410 ,4,1,0.,12.0,0.,12.0,0.,12.0,0.,12.0
1979-07-26 21:09:14.400 ,0,1,0.,12.0,0.,12.0,0.,12.0,0.,12.0
1979-07-26 21:09:26.410 ,0,1,0.,12.0,0.,12.0,0.,12.0,0.,12.0
1979-07-26 21:09:38.400 ,3,1,0.,12.0,0.,12.0,0.,12.0,0.,12.0
1979-07-26 21:09:50.410 ,3,1,0.,12.0,0.,12.0,0.,12.0,0.,12.0
1979-07-26 21:10:02.400 ,7,1,0.,12.0,0.,12.0,0.,12.0,0.,12.0
1979-07-26 21:10:14.410 ,7,1,0.,12.0,0.,12.0,0.,12.0,0.,12.0
1979-07-26 21:10:26.400 ,4,1,0.,12.0,0.,12.0,0.,12.0,0.,12.0
1979-07-26 21:10:38.410 ,4,1,0.,12.0,0.,12.0,0.,12.0,0.,12.0
1979-07-26 21:10:50.400 ,0,1,0.,12.0,0.,12.0,0.,12.0,0.,12.0
1979-07-26 21:11:02.410 ,0,1,0.,12.0,0.,12.0,0.,12.0,0.,12.0
1979-07-26 21:11:14.400 ,3,1,0.,12.0,0.,12.0,0.,12.0,0.,12.0
1979-07-26 21:11:26.410 ,3,1,0.,12.0,0.,12.0,0.,12.0,0.,12.0
1979-07-26 21:11:38.400 ,7,1,0.,12.0,0.,12.0,0.,12.0,0.,12.0
1979-07-26 21:11:50.410 ,7,1,0.,12.0,0.,12.0,0.,12.0,0.,12.0
1979-07-26 21:12:02.400 ,4,1,0.,12.0,0.,12.0,0.,12.0,0.,12.0
1979-07-26 21:12:14.400 ,4,1,0.,12.0,0.,12.0,0.,12.0,0.,12.0
1979-07-26 21:12:26.400 ,0,1,0.,12.0,0.,12.0,0.,12.0,0.,12.0
1979-07-26 21:12:38.400 ,0,1,0.,12.0,0.,12.0,0.,12.0,0.,12.0
1979-07-26 21:12:50.400 ,3,1,0.,12.0,0.,12.0,0.,12.0,0.,12.0
1979-07-26 21:13:02.400 ,3,1,0.,12.0,0.,12.0,0.,12.0,0.,12.0
1979-07-26 21:13:14.400 ,7,1,0.,12.0,0.,12.0,0.,12.0,0.,12.0
1979-07-26 21:13:26.400 ,7,1,0.,12.0,0.,12.0,0.,12.0,0.,12.0
1979-07-26 21:13:38.400 ,4,1,0.,12.0,0.,12.0,0.,12.0,0.,12.0
1979-07-26 21:13:50.400 ,4,1,0.,12.0,0.,12.0,0.,12.0,0.,12.0
1979-07-26 21:14:02.400 ,0,1,0.,12.0,0.,12.0,0.,12.0,0.,12.0
1979-07-26 21:14:14.400 ,0,1,0.,12.0,0.,12.0,0.,12.0,0.,12.0
1979-07-26 21:14:26.400 ,3,1,0.,12.0,0.,12.0,0.,12.0,0.,12.0
1979-07-26 21:14:38.400 ,3,1,0.,12.0,0.,12.0,0.,12.0,0.,12.0
1979-07-26 21:14:50.400 ,7,1,0.,12.0,0.,12.0,0.,12.0,0.,12.0
1979-07-26 21:15:02.400 ,7,1,0.,12.0,0.,12.0,0.,12.0,0.,12.0
1979-07-26 21:15:14.400 ,4,1,0.,12.0,0.,12.0,0.,12.0,0.,12.0
1979-07-26 21:15:26.400 ,4,1,0.,12.0,0.,12.0,0.,12.0,0.,12.0
1979-07-26 21:15:38.400 ,0,1,0.,12.0,0.,12.0,0.,12.0,0.,12.0
1979-07-26 21:15:50.400 ,0,1,0.,12.0,0.,12.0,0.,12.0,0.,12.0
1979-07-26 21:16:02.400 ,3,1,0.,12.0,0.,12.0,0.,12.0,0.,12.0
1979-07-26 21:16:14.400 ,3,1,0.,12.0,0.,12.0,0.,12.0,0.,12.0
1979-07-26 21:16:26.400 ,7,1,0.,12.0,0.,12.0,0.,12.0,0.,12.0
1979-07-26 21:16:38.400 ,7,1,0.,12.0,0.,12.0,0.,12.0,0.,12.0
1979-07-26 21:16:50.400 ,4,1,0.,12.0,0.,12.0,0.,12.0,0.,12.0
1979-07-26 21:17:02.400 ,4,1,0.,12.0,0.,12.0,0.,12.0,0.,12.0
1979-07-26 21:17:14.400 ,0,1,0.,12.0,0.,12.0,0.,12.0,0.,12.0
1979-07-26 21:17:26.400 ,0,1,0.,12.0,0.,12.0,0.,12.0,0.,12.0
1979-07-26 21:17:38.400 ,0,0,0.,12.0,0.,12.0,0.,12.0,0.,12.0
1979-07-26 21:17:50.400 ,0,0,0.,12.0,0.,12.0,0.,12.0,0.,12.0
1979-07-26 21:18:02.400 ,0,0,0.,12.0,0.,12.0,0.,12.0,0.,12.0
1979-07-26 21:18:14.400 ,0,0,0.,12.0,0.,12.0,0.,12.0,0.,12.0
1979-07-26 21:18:26.400 ,5,1,0.,12.0,0.,12.0,0.,12.0,0.,12.0
1979-07-26 21:18:38.400 ,5,1,0.,12.0,0.,12.0,0.,12.0,0.,12.0
1979-07-26 21:18:50.400 ,5,0,0.,12.0,0.,12.0,0.,12.0,0.,12.0
1979-07-26 21:19:02.400 ,5,0,0.,12.0,0.,12.0,0.,12.0,0.,12.0
1979-07-26 21:19:14.400 ,4,1,0.,12.0,0.,12.0,0.,12.0,0.,12.0
1979-07-26 21:19:26.400 ,4,1,0.,12.0,0.,12.0,0.,12.0,0.,12.0
1979-07-26 21:19:38.400 ,4,0,0.,12.0,0.,12.0,0.,12.0,0.,12.0
1979-07-26 21:19:50.400 ,4,0,0.,12.0,0.,12.0,0.,12.0,0.,12.0
1979-07-26 21:20:02.400 ,3,1,0.,12.0,0.,12.0,0.,12.0,0.,12.0
1979-07-26 21:20:14.400 ,3,1,0.,12.0,0.,12.0,0.,12.0,0.,12.0
1979-07-26 21:20:26.400 ,3,0,0.,12.0,0.,12.0,0.,12.0,0.,12.0
1979-07-26 21:20:38.400 ,3,0,0.,12.0,0.,12.0,0.,12.0,0.,12.0
1979-07-26 21:20:50.400 ,2,1,0.,12.0,0.,12.0,0.,12.0,0.,12.0
1979-07-26 21:21:02.400 ,2,1,0.,12.0,0.,12.0,0.,12.0,0.,12.0
1979-07-26 21:21:14.400 ,2,0,0.,12.0,0.,12.0,0.,12.0,0.,12.0
1979-07-26 21:21:26.400 ,2,0,0.,12.0,0.,12.0,0.,12.0,0.,12.0
1979-07-26 21:21:38.400 ,1,1,0.,12.0,0.,12.0,0.,12.0,0.,12.0
1979-07-26 21:21:50.400 ,1,1,0.,12.0,0.,12.0,0.,12.0,0.,12.0
1979-07-26 21:22:02.400 ,1,0,0.,12.0,0.,12.0,0.,12.0,0.,12.0
1979-07-26 21:22:14.400 ,1,0,0.,12.0,0.,12.0,0.,12.0,0.,12.0
1979-07-26 21:22:26.400 ,0,1,0.,12.0,0.,12.0,0.,12.0,0.,12.0
1979-07-26 21:22:38.400 ,0,1,0.,12.0,0.,12.0,0.,12.0,0.,12.0
1979-07-26 21:22:50.400 ,0,0,0.,12.0,0.,12.0,0.,12.0,0.,12.0
1979-07-26 21:23:02.400 ,0,0,0.,12.0,0.,12.0,0.,12.0,0.,12.0
1979-07-26 21:23:14.400 ,0,1,0.,12.0,0.,12.0,0.,12.0,0.,12.0
1979-07-26 21:23:26.400 ,0,1,0.,12.0,0.,12.0,0.,12.0,0.,12.0
1979-07-26 21:23:38.400 ,0,0,0.,12.0,0.,12.0,0.,12.0,0.,12.0
1979-07-26 21:23:50.400 ,0,0,0.,12.0,0.,12.0,0.,12.0,0.,12.0
1979-07-26 21:24:02.400 ,1,1,0.,12.0,0.,12.0,0.,12.0,0.,12.0
1979-07-26 21:24:14.400 ,1,1,0.,12.0,0.,12.0,0.,12.0,0.,12.0
1979-07-26 21:24:26.400 ,1,0,0.,12.0,0.,12.0,0.,12.0,0.,12.0
1979-07-26 21:24:38.400 ,1,0,0.,12.0,0.,12.0,0.,12.0,0.,12.0
1979-07-26 21:24:50.400 ,2,1,0.,12.0,0.,12.0,0.,12.0,0.,12.0
1979-07-26 21:25:02.400 ,2,1,0.,12.0,0.,12.0,0.,12.0,0.,12.0
1979-07-26 21:25:14.400 ,2,0,0.,12.0,0.,12.0,0.,12.0,0.,12.0
1979-07-26 21:25:26.400 ,2,0,0.,12.0,0.,12.0,0.,12.0,0.,12.0
1979-07-26 21:25:38.400 ,3,1,0.,12.0,0.,12.0,0.,12.0,0.,12.0
1979-07-26 21:25:50.400 ,3,1,0.,12.0,0.,12.0,0.,12.0,0.,12.0
1979-07-26 21:26:02.400 ,3,0,0.,12.0,0.,12.0,0.,12.0,0.,12.0
1979-07-26 21:26:14.400 ,3,0,0.,12.0,0.,12.0,0.,12.0,0.,12.0
1979-07-26 21:26:26.400 ,4,1,0.,12.0,0.,12.0,0.,12.0,0.,12.0
1979-07-26 21:26:38.400 ,4,1,0.,12.0,0.,12.0,0.,12.0,0.,12.0
1979-07-26 21:26:50.400 ,4,0,0.,12.0,0.,12.0,0.,12.0,0.,12.0
1979-07-26 21:27:02.400 ,4,0,0.,12.0,0.,12.0,0.,12.0,0.,12.0
1979-07-26 21:27:14.400 ,5,1,0.,12.0,0.,12.0,0.,12.0,0.,12.0
1979-07-26 21:27:26.400 ,5,1,0.,12.0,0.,12.0,0.,12.0,0.,12.0
1979-07-26 21:27:38.400 ,5,0,0.,12.0,0.,12.0,0.,12.0,0.,12.0
1979-07-26 21:27:50.400 ,5,0,0.,12.0,0.,12.0,0.,12.0,0.,12.0
1979-07-26 21:28:02.400 ,6,1,0.,12.0,0.,12.0,0.,12.0,0.,12.0
1979-07-26 21:28:14.400 ,6,1,0.,12.0,0.,12.0,0.,12.0,0.,12.0
1979-07-26 21:28:26.400 ,6,0,0.,12.0,0.,12.0,0.,12.0,0.,12.0
1979-07-26 21:28:38.400 ,6,0,0.,12.0,0.,12.0,0.,12.0,0.,12.0
1979-07-26 21:28:50.400 ,7,1,0.,12.0,0.,12.0,0.,12.0,0.,12.0
1979-07-26 21:29:02.400 ,7,1,0.,12.0,0.,12.0,0.,12.0,0.,12.0
1979-07-26 21:29:14.400 ,7,0,0.,12.0,0.,12.0,0.,12.0,0.,12.0
1979-07-26 21:29:26.400 ,7,0,0.,12.0,0.,12.0,0.,12.0,0.,12.0
1979-07-26 21:29:38.400 ,7,1,0.,12.0,0.,12.0,0.,12.0,0.,12.0
1979-07-26 21:29:50.400 ,7,1,0.,12.0,0.,12.0,0.,12.0,0.,12.0
1979-07-26 21:30:02.400 ,7,0,0.,12.0,0.,12.0,0.,12.0,0.,12.0
1979-07-26 21:30:14.400 ,7,0,0.,12.0,0.,12.0,0.,12.0,0.,12.0
1979-07-26 21:30:26.400 ,6,1,0.,12.0,0.,12.0,0.,12.0,0.,12.0
1979-07-26 21:30:38.400 ,6,1,0.,12.0,0.,12.0,0.,12.0,0.,12.0
1979-07-26 21:30:50.400 ,6,0,0.,12.0,0.,12.0,0.,12.0,0.,12.0
1979-07-26 21:31:02.400 ,6,0,0.,12.0,0.,12.0,0.,12.0,0.,12.0
1979-07-26 21:31:14.400 ,5,1,0.,12.0,0.,12.0,0.,12.0,0.,12.0
1979-07-26 21:31:26.400 ,5,1,0.,12.0,0.,12.0,0.,12.0,0.,12.0
1979-07-26 21:31:38.400 ,5,0,0.,12.0,0.,12.0,0.,12.0,0.,12.0
1979-07-26 21:31:50.400 ,5,0,0.,12.0,0.,12.0,0.,12.0,0.,12.0
1979-07-26 21:32:02.400 ,4,1,0.,12.0,0.,12.0,0.,12.0,0.,12.0
1979-07-26 21:32:14.400 ,4,1,0.,12.0,0.,12.0,0.,12.0,0.,12.0
1979-07-26 21:32:26.400 ,4,0,0.,12.0,0.,12.0,0.,12.0,0.,12.0
1979-07-26 21:32:38.400 ,4,0,0.,12.0,0.,12.0,0.,12.0,0.,12.0
1979-07-26 21:32:50.400 ,3,1,0.,12.0,0.,12.0,0.,12.0,0.,12.0
1979-07-26 21:33:02.400 ,3,1,0.,12.0,0.,12.0,0.,12.0,0.,12.0
1979-07-26 21:33:14.400 ,3,0,0.,12.0,0.,12.0,0.,12.0,0.,12.0
1979-07-26 21:33:26.400 ,3,0,0.,12.0,0.,12.0,0.,12.0,0.,12.0
1979-07-26 21:33:38.400 ,2,1,0.,12.0,0.,12.0,0.,12.0,0.,12.0
1979-07-26 21:33:50.400 ,2,1,0.,12.0,0.,12.0,0.,12.0,0.,12.0
1979-07-26 21:34:02.400 ,2,0,0.,12.0,0.,12.0,0.,12.0,0.,12.0
1979-07-26 21:34:14.400 ,2,0,0.,12.0,0.,12.0,0.,12.0,0.,12.0
1979-07-26 21:34:26.400 ,1,1,0.,12.0,0.,12.0,0.,12.0,0.,12.0
1979-07-26 21:34:38.400 ,1,1,0.,12.0,0.,12.0,0.,12.0,0.,12.0
1979-07-26 21:34:50.400 ,1,0,0.,12.0,0.,12.0,0.,12.0,0.,12.0
1979-07-26 21:35:02.400 ,1,0,0.,12.0,0.,12.0,0.,12.0,0.,12.0
1979-07-26 21:35:14.400 ,0,1,0.,12.0,0.,12.0,0.,12.0,0.,12.0
1979-07-26 21:35:26.400 ,0,1,0.,12.0,0.,12.0,0.,12.0,0.,12.0
1979-07-26 21:35:38.400 ,0,0,0.,12.0,0.,12.0,0.,12.0,0.,12.0
1979-07-26 21:35:50.400 ,0,0,0.,12.0,0.,12.0,0.,12.0,0.,12.0
1979-07-26 21:36:02.400 ,0,1,0.,12.0,0.,12.0,0.,12.0,0.,12.0
1979-07-26 21:36:14.400 ,0,1,0.,12.0,0.,12.0,0.,12.0,0.,12.0
1979-07-26 21:36:26.400 ,0,0,0.,12.0,0.,12.0,0.,12.0,0.,12.0
1979-07-26 21:36:38.400 ,0,0,0.,12.0,0.,12.0,0.,12.0,0.,12.0
1979-07-26 21:36:50.400 ,1,1,0.,12.0,0.,12.0,0.,12.0,0.,12.0
1979-07-26 21:37:02.400 ,1,1,0.,12.0,0.,12.0,0.,12.0,0.,12.0
1979-07-26 21:37:14.400 ,1,0,0.,12.0,0.,12.0,0.,12.0,0.,12.0
1979-07-26 21:37:26.400 ,1,0,0.,12.0,0.,12.0,0.,12.0,0.,12.0
1979-07-26 21:37:38.400 ,2,1,0.,12.0,0.,12.0,0.,12.0,0.,12.0
1979-07-26 21:37:50.400 ,2,1,0.,12.0,0.,12.0,0.,12.0,0.,12.0
1979-07-26 21:38:02.400 ,2,0,0.,12.0,0.,12.0,0.,12.0,0.,12.0
1979-07-26 21:38:14.400 ,2,0,0.,12.0,0.,12.0,0.,12.0,0.,12.0
1979-07-26 21:38:26.400 ,3,1,0.,12.0,0.,12.0,0.,12.0,0.,12.0
1979-07-26 21:38:38.400 ,3,1,0.,12.0,0.,12.0,0.,12.0,0.,12.0
1979-07-26 21:38:50.400 ,3,0,0.,12.0,0.,12.0,0.,12.0,0.,12.0
1979-07-26 21:39:02.400 ,3,0,0.,12.0,0.,12.0,0.,12.0,0.,12.0
1979-07-26 21:39:14.400 ,4,1,0.,12.0,0.,12.0,0.,12.0,0.,12.0
1979-07-26 21:39:26.400 ,4,1,0.,12.0,0.,12.0,0.,12.0,0.,12.0
1979-07-26 21:39:38.400 ,4,0,0.,12.0,0.,12.0,0.,12.0,0.,12.0
1979-07-26 21:39:50.400 ,4,0,0.,12.0,0.,12.0,0.,12.0,0.,12.0
1979-07-26 21:40:02.400 ,5,1,0.,12.0,0.,12.0,0.,12.0,0.,12.0
1979-07-26 21:40:14.400 ,5,1,0.,12.0,0.,12.0,0.,12.0,0.,12.0
1979-07-26 21:40:26.400 ,5,0,0.,12.0,0.,12.0,0.,12.0,0.,12.0
1979-07-26 21:40:38.400 ,5,0,0.,12.0,0.,12.0,0.,12.0,0.,12.0
1979-07-26 21:40:50.400 ,6,1,0.,12.0,0.,12.0,0.,12.0,0.,12.0
1979-07-26 21:41:02.400 ,6,1,0.,12.0,0.,12.0,0.,12.0,0.,12.0
1979-07-26 21:41:14.400 ,6,0,0.,12.0,0.,12.0,0.,12.0,0.,12.0
1979-07-26 21:41:26.400 ,6,0,0.,12.0,0.,12.0,0.,12.0,0.,12.0
1979-07-26 21:41:38.400 ,7,1,0.,12.0,0.,12.0,0.,12.0,0.,12.0
1979-07-26 21:41:50.400 ,7,1,0.,12.0,0.,12.0,0.,12.0,0.,12.0
1979-07-26 21:42:02.400 ,7,0,0.,12.0,0.,12.0,0.,12.0,0.,12.0
1979-07-26 21:42:14.400 ,7,0,0.,12.0,0.,12.0,0.,12.0,0.,12.0
1979-07-26 21:42:26.400 ,7,1,0.,12.0,0.,12.0,0.,12.0,0.,12.0
1979-07-26 21:42:38.400 ,7,1,0.,12.0,0.,12.0,0.,12.0,0.,12.0
1979-07-26 21:42:50.400 ,7,0,0.,12.0,0.,12.0,0.,12.0,0.,12.0
1979-07-26 21:43:02.400 ,7,0,0.,12.0,0.,12.0,0.,12.0,0.,12.0
1979-07-26 21:43:14.400 ,6,1,0.,12.0,0.,12.0,0.,12.0,0.,12.0
1979-07-26 21:43:26.400 ,6,1,0.,12.0,0.,12.0,0.,12.0,0.,12.0
1979-07-26 21:43:38.400 ,6,0,0.,12.0,0.,12.0,0.,12.0,0.,12.0
1979-07-26 21:43:50.400 ,6,0,0.,12.0,0.,12.0,0.,12.0,0.,12.0
1979-07-26 21:44:02.400 ,5,1,0.,12.0,0.,12.0,0.,12.0,0.,12.0
1979-07-26 21:44:14.400 ,5,1,0.,12.0,0.,12.0,0.,12.0,0.,12.0
1979-07-26 21:44:26.400 ,5,0,0.,12.0,0.,12.0,0.,12.0,0.,12.0
1979-07-26 21:44:38.400 ,5,0,0.,12.0,0.,12.0,0.,12.0,0.,12.0
1979-07-26 21:44:50.400 ,4,1,0.,12.0,0.,12.0,0.,12.0,0.,12.0
1979-07-26 21:45:02.400 ,4,1,0.,12.0,0.,12.0,0.,12.0,0.,12.0
1979-07-26 21:45:14.400 ,4,0,0.,12.0,0.,12.0,0.,12.0,0.,12.0
1979-07-26 21:45:26.400 ,4,0,0.,12.0,0.,12.0,0.,12.0,0.,12.0
1979-07-26 21:45:38.400 ,3,1,0.,12.0,0.,12.0,0.,12.0,0.,12.0
1979-07-26 21:45:50.400 ,3,1,0.,12.0,0.,12.0,0.,12.0,0.,12.0
1979-07-26 21:46:02.400 ,3,0,0.,12.0,0.,12.0,0.,12.0,0.,12.0
1979-07-26 21:46:14.400 ,3,0,0.,12.0,0.,12.0,0.,12.0,0.,12.0
1979-07-26 21:46:26.400 ,2,1,0.,12.0,0.,12.0,0.,12.0,0.,12.0
1979-07-26 21:46:38.400 ,2,1,0.,12.0,0.,12.0,0.,12.0,0.,12.0
1979-07-26 21:46:50.400 ,2,0,0.,12.0,0.,12.0,0.,12.0,0.,12.0
1979-07-26 21:47:02.400 ,2,0,0.,12.0,0.,12.0,0.,12.0,0.,12.0
1979-07-26 21:47:14.400 ,1,1,0.,12.0,0.,12.0,0.,12.0,0.,12.0
1979-07-26 21:47:26.400 ,1,1,0.,12.0,0.,12.0,0.,12.0,0.,12.0
1979-07-26 21:47:38.400 ,1,0,0.,12.0,0.,12.0,0.,12.0,0.,12.0
1979-07-26 21:47:50.400 ,1,0,0.,12.0,0.,12.0,0.,12.0,0.,12.0
1979-07-26 21:48:02.400 ,0,1,0.,12.0,0.,12.0,0.,12.0,0.,12.0
1979-07-26 21:48:14.400 ,0,1,0.,12.0,0.,12.0,0.,12.0,0.,12.0
1979-07-26 21:48:26.400 ,0,0,0.,12.0,0.,12.0,0.,12.0,0.,12.0
1979-07-26 21:48:38.400 ,0,0,0.,12.0,0.,12.0,0.,12.0,0.,12.0
1979-07-26 21:48:50.400 ,0,1,0.,12.0,0.,12.0,0.,12.0,0.,12.0
1979-07-26 21:49:02.400 ,0,1,0.,12.0,0.,12.0,0.,12.0,0.,12.0
1979-07-26 21:49:14.400 ,0,0,0.,12.0,0.,12.0,0.,12.0,0.,12.0
1979-07-26 21:49:26.400 ,0,0,0.,12.0,0.,12.0,0.,12.0,0.,12.0
1979-07-26 21:49:38.400 ,1,1,0.,12.0,0.,12.0,0.,12.0,0.,12.0
1979-07-26 21:49:50.400 ,1,1,0.,12.0,0.,12.0,0.,12.0,0.,12.0
1979-07-26 21:50:02.400 ,1,0,0.,12.0,0.,12.0,0.,12.0,0.,12.0
1979-07-26 21:50:14.400 ,1,0,0.,12.0,0.,12.0,0.,12.0,0.,12.0
1979-07-26 21:50:26.400 ,2,1,0.,12.0,0.,12.0,0.,12.0,0.,12.0
1979-07-26 21:50:38.400 ,2,1,0.,12.0,0.,12.0,0.,12.0,0.,12.0
1979-07-26 21:50:50.400 ,2,0,0.,12.0,0.,12.0,0.,12.0,0.,12.0
1979-07-26 21:51:02.400 ,2,0,0.,12.0,0.,12.0,0.,12.0,0.,12.0
1979-07-26 21:51:14.400 ,3,1,0.,12.0,0.,12.0,0.,12.0,0.,12.0
1979-07-26 21:51:26.400 ,3,1,0.,12.0,0.,12.0,0.,12.0,0.,12.0
1979-07-26 21:51:38.400 ,3,0,0.,12.0,0.,12.0,0.,12.0,0.,12.0
1979-07-26 21:51:50.400 ,3,0,0.,12.0,0.,12.0,0.,12.0,0.,12.0
1979-07-26 21:52:02.400 ,4,1,0.,12.0,0.,12.0,0.,12.0,0.,12.0
1979-07-26 21:52:14.400 ,4,1,0.,12.0,0.,12.0,0.,12.0,0.,12.0
1979-07-26 21:52:26.400 ,4,0,0.,12.0,0.,12.0,0.,12.0,0.,12.0
1979-07-26 21:52:38.400 ,4,0,0.,12.0,0.,12.0,0.,12.0,0.,12.0
1979-07-26 21:52:50.400 ,5,1,0.,12.0,0.,12.0,0.,12.0,0.,12.0
1979-07-26 21:53:02.400 ,5,1,0.,12.0,0.,12.0,0.,12.0,0.,12.0
1979-07-26 21:53:14.400 ,5,0,0.,12.0,0.,12.0,0.,12.0,0.,12.0
1979-07-26 21:53:26.400 ,5,0,0.,12.0,0.,12.0,0.,12.0,0.,12.0
1979-07-26 21:53:38.400 ,6,1,0.,12.0,0.,12.0,0.,12.0,0.,12.0
1979-07-26 21:53:50.400 ,6,1,0.,12.0,0.,12.0,0.,12.0,0.,12.0
1979-07-26 21:54:02.400 ,6,0,0.,12.0,0.,12.0,0.,12.0,0.,12.0
1979-07-26 21:54:14.400 ,6,0,0.,12.0,0.,12.0,0.,12.0,0.,12.0
1979-07-26 21:54:26.400 ,7,0,0.,12.0,0.,12.0,0.,12.0,0.,12.0
1979-07-26 21:54:38.400 ,7,0,0.,12.0,0.,12.0,0.,12.0,0.,12.0
1979-07-26 21:54:50.400 ,7,0,0.,12.0,0.,12.0,0.,12.0,0.,12.0
1979-07-26 21:55:02.400 ,7,0,0.,12.0,0.,12.0,0.,12.0,0.,12.0
1979-07-26 21:55:14.400 ,4,1,0.,12.0,0.,12.0,0.,12.0,0.,12.0
1979-07-26 21:55:26.400 ,4,1,0.,12.0,0.,12.0,0.,12.0,0.,12.0
1979-07-26 21:55:38.400 ,0,1,0.,12.0,0.,12.0,0.,12.0,0.,12.0
1979-07-26 21:55:50.400 ,0,1,0.,12.0,0.,12.0,0.,12.0,0.,12.0
1979-07-26 21:56:02.400 ,3,1,0.,12.0,0.,12.0,0.,12.0,0.,12.0
1979-07-26 21:56:14.400 ,3,1,0.,12.0,0.,12.0,0.,12.0,0.,12.0
1979-07-26 21:56:26.400 ,7,1,0.,12.0,0.,12.0,0.,12.0,0.,12.0
1979-07-26 21:56:38.400 ,7,1,0.,12.0,0.,12.0,0.,12.0,0.,12.0
1979-07-26 21:56:50.400 ,4,1,0.,12.0,0.,12.0,0.,12.0,0.,12.0
1979-07-26 21:57:02.400 ,4,1,0.,12.0,0.,12.0,0.,12.0,0.,12.0
1979-07-26 21:57:14.400 ,0,1,0.,12.0,0.,12.0,0.,12.0,0.,12.0
1979-07-26 21:57:26.400 ,0,1,0.,12.0,0.,12.0,0.,12.0,0.,12.0
1979-07-26 21:57:38.400 ,3,1,0.,12.0,0.,12.0,0.,12.0,0.,12.0
1979-07-26 21:57:50.400 ,3,1,0.,12.0,0.,12.0,0.,12.0,0.,12.0
1979-07-26 21:58:02.400 ,7,1,0.,12.0,0.,12.0,0.,12.0,0.,12.0
1979-07-26 21:58:14.400 ,7,1,0.,12.0,0.,12.0,0.,12.0,0.,12.0
1979-07-26 21:58:26.400 ,4,1,0.,12.0,0.,12.0,0.,12.0,0.,12.0
1979-07-26 21:58:38.400 ,4,1,0.,12.0,0.,12.0,0.,12.0,0.,12.0
1979-07-26 21:58:50.400 ,0,1,0.,12.0,0.,12.0,0.,12.0,0.,12.0
1979-07-26 21:59:02.400 ,0,1,0.,12.0,0.,12.0,0.,12.0,0.,12.0
1979-07-26 21:59:14.400 ,3,1,0.,12.0,0.,12.0,0.,12.0,0.,12.0
1979-07-26 21:59:26.400 ,3,1,0.,12.0,0.,12.0,0.,12.0,0.,12.0
1979-07-26 21:59:38.400 ,7,1,0.,12.0,0.,12.0,0.,12.0,0.,12.0
1979-07-26 21:59:50.400 ,7,1,0.,12.0,0.,12.0,0.,12.0,0.,12.0
1979-07-26 22:00:02.400 ,4,1,0.,12.0,0.,12.0,0.,12.0,0.,12.0
1979-07-26 22:00:14.400 ,4,1,0.,12.0,0.,12.0,0.,12.0,0.,12.0
1979-07-26 22:00:26.400 ,0,1,0.,12.0,0.,12.0,0.,12.0,0.,12.0
1979-07-26 22:00:38.400 ,0,1,0.,12.0,0.,12.0,0.,12.0,0.,12.0
1979-07-26 22:00:50.400 ,3,1,0.,12.0,0.,12.0,0.,12.0,0.,12.0
1979-07-26 22:01:02.400 ,3,1,0.,12.0,0.,12.0,0.,12.0,0.,12.0
1979-07-26 22:01:14.400 ,7,1,0.,12.0,0.,12.0,0.,12.0,0.,12.0
1979-07-26 22:01:26.400 ,7,1,0.,12.0,0.,12.0,0.,12.0,0.,12.0
1979-07-26 22:01:38.400 ,4,1,0.,12.0,0.,12.0,0.,12.0,0.,12.0
1979-07-26 22:01:50.400 ,4,1,0.,12.0,0.,12.0,0.,12.0,0.,12.0
1979-07-26 22:02:02.400 ,0,1,0.,12.0,0.,12.0,0.,12.0,0.,12.0
1979-07-26 22:02:14.400 ,0,1,0.,12.0,0.,12.0,0.,12.0,0.,12.0
1979-07-26 22:02:26.400 ,3,1,0.,12.0,0.,12.0,0.,12.0,0.,12.0
1979-07-26 22:02:38.400 ,3,1,0.,12.0,0.,12.0,0.,12.0,0.,12.0
1979-07-26 22:02:50.400 ,7,1,0.,12.0,0.,12.0,0.,12.0,0.,12.0
1979-07-26 22:03:02.400 ,7,1,0.,12.0,0.,12.0,0.,12.0,0.,12.0
1979-07-26 22:03:14.400 ,4,1,0.,12.0,0.,12.0,0.,12.0,0.,12.0
1979-07-26 22:03:26.400 ,4,1,0.,12.0,0.,12.0,0.,12.0,0.,12.0
1979-07-26 22:03:38.400 ,0,1,0.,12.0,0.,12.0,0.,12.0,0.,12.0
1979-07-26 22:03:50.400 ,0,1,0.,12.0,0.,12.0,0.,12.0,0.,12.0
1979-07-26 22:04:02.400 ,3,1,0.,12.0,0.,12.0,0.,12.0,0.,12.0
1979-07-26 22:04:14.400 ,3,1,0.,12.0,0.,12.0,0.,12.0,0.,12.0
1979-07-26 22:04:26.400 ,7,1,0.,12.0,0.,12.0,0.,12.0,0.,12.0
1979-07-26 22:04:38.400 ,7,1,0.,12.0,0.,12.0,0.,12.0,0.,12.0
1979-07-26 22:05:38.400 ,0,0,0.,12.0,0.,12.0,0.,12.0,0.,12.0
1979-07-26 22:05:50.400 ,0,0,0.,12.0,0.,12.0,0.,12.0,0.,12.0
1979-07-26 22:06:02.400 ,0,0,0.,12.0,0.,12.0,0.,12.0,0.,12.0
1979-07-26 22:06:14.400 ,0,0,0.,12.0,0.,12.0,0.,12.0,0.,12.0
1979-07-26 22:06:26.400 ,5,1,0.,12.0,0.,12.0,0.,12.0,0.,12.0
1979-07-26 22:06:38.400 ,5,1,0.,12.0,0.,12.0,0.,12.0,0.,12.0
1979-07-26 22:06:50.400 ,5,0,0.,12.0,0.,12.0,0.,12.0,0.,12.0
1979-07-26 22:07:02.400 ,5,0,0.,12.0,0.,12.0,0.,12.0,0.,12.0
1979-07-26 22:07:14.400 ,4,1,0.,12.0,0.,12.0,0.,12.0,0.,12.0
1979-07-26 22:07:26.400 ,4,1,0.,12.0,0.,12.0,0.,12.0,0.,12.0
1979-07-26 22:07:38.400 ,4,0,0.,12.0,0.,12.0,0.,12.0,0.,12.0
1979-07-26 22:07:50.400 ,4,0,0.,12.0,0.,12.0,0.,12.0,0.,12.0
1979-07-26 22:08:02.400 ,3,1,0.,12.0,0.,12.0,0.,12.0,0.,12.0
1979-07-26 22:08:14.400 ,3,1,0.,12.0,0.,12.0,0.,12.0,0.,12.0
1979-07-26 22:08:26.400 ,3,0,0.,12.0,0.,12.0,0.,12.0,0.,12.0
1979-07-26 22:08:38.400 ,3,0,0.,12.0,0.,12.0,0.,12.0,0.,12.0
1979-07-26 22:08:50.400 ,2,1,0.,12.0,0.,12.0,0.,12.0,0.,12.0
1979-07-26 22:09:02.400 ,2,1,0.,12.0,0.,12.0,0.,12.0,0.,12.0
1979-07-26 22:09:14.400 ,2,0,0.,12.0,0.,12.0,0.,12.0,0.,12.0
1979-07-26 22:09:26.400 ,2,0,0.,12.0,0.,12.0,0.,12.0,0.,12.0
1979-07-26 22:09:38.400 ,1,1,0.,12.0,0.,12.0,0.,12.0,0.,12.0
1979-07-26 22:09:50.400 ,1,1,0.,12.0,0.,12.0,0.,12.0,0.,12.0
1979-07-26 22:10:02.400 ,1,0,0.,12.0,0.,12.0,0.,12.0,0.,12.0
1979-07-26 22:10:14.400 ,1,0,0.,12.0,0.,12.0,0.,12.0,0.,12.0
1979-07-26 22:10:26.400 ,0,1,0.,12.0,0.,12.0,0.,12.0,0.,12.0
1979-07-26 22:10:38.400 ,0,1,0.,12.0,0.,12.0,0.,12.0,0.,12.0
1979-07-26 22:10:50.400 ,0,0,0.,12.0,0.,12.0,0.,12.0,0.,12.0
1979-07-26 22:11:02.400 ,0,0,0.,12.0,0.,12.0,0.,12.0,0.,12.0
1979-07-26 22:11:14.400 ,0,1,0.,12.0,0.,12.0,0.,12.0,0.,12.0
1979-07-26 22:11:26.400 ,0,1,0.,12.0,0.,12.0,0.,12.0,0.,12.0
1979-07-26 22:11:38.400 ,0,0,0.,12.0,0.,12.0,0.,12.0,0.,12.0
1979-07-26 22:11:50.400 ,0,0,0.,12.0,0.,12.0,0.,12.0,0.,12.0
1979-07-26 22:12:02.400 ,1,1,0.,12.0,0.,12.0,0.,12.0,0.,12.0
1979-07-26 22:12:14.400 ,1,1,0.,12.0,0.,12.0,0.,12.0,0.,12.0
1979-07-26 22:12:26.400 ,1,0,0.,12.0,0.,12.0,0.,12.0,0.,12.0
1979-07-26 22:12:38.400 ,1,0,0.,12.0,0.,12.0,0.,12.0,0.,12.0
1979-07-26 22:12:50.400 ,2,1,0.,12.0,0.,12.0,0.,12.0,0.,12.0
1979-07-26 22:13:02.400 ,2,1,0.,12.0,0.,12.0,0.,12.0,0.,12.0
1979-07-26 22:13:14.400 ,2,0,0.,12.0,0.,12.0,0.,12.0,0.,12.0
1979-07-26 22:13:26.400 ,2,0,0.,12.0,0.,12.0,0.,12.0,0.,12.0
1979-07-26 22:13:38.400 ,3,1,0.,12.0,0.,12.0,0.,12.0,1.,12.0
1979-07-26 22:13:50.400 ,3,1,0.,12.0,0.,12.0,0.,12.0,0.,12.0
1979-07-26 22:14:02.400 ,3,0,0.,12.0,0.,12.0,0.,12.0,0.,12.0
1979-07-26 22:14:14.400 ,3,0,0.,12.0,0.,12.0,0.,12.0,0.,12.0
1979-07-26 22:14:26.400 ,4,1,0.,12.0,0.,12.0,0.,12.0,0.,12.0
1979-07-26 22:14:38.400 ,4,1,0.,12.0,0.,12.0,0.,12.0,0.,12.0
1979-07-26 22:14:50.400 ,4,0,0.,12.0,0.,12.0,0.,12.0,0.,12.0
1979-07-26 22:15:02.400 ,4,0,0.,12.0,0.,12.0,0.,12.0,0.,12.0
1979-07-26 22:15:14.400 ,5,1,0.,12.0,0.,12.0,0.,12.0,0.,12.0
1979-07-26 22:15:26.400 ,5,1,0.,12.0,0.,12.0,0.,12.0,0.,12.0
1979-07-26 22:15:38.400 ,5,0,0.,12.0,0.,12.0,0.,12.0,0.,12.0
1979-07-26 22:15:50.400 ,5,0,0.,12.0,0.,12.0,0.,12.0,0.,12.0
1979-07-26 22:16:02.400 ,6,1,0.,12.0,0.,12.0,0.,12.0,0.,12.0
1979-07-26 22:16:14.400 ,6,1,0.,12.0,0.,12.0,0.,12.0,0.,12.0
1979-07-26 22:16:26.400 ,6,0,0.,12.0,0.,12.0,0.,12.0,0.,12.0
1979-07-26 22:16:38.400 ,6,0,0.,12.0,0.,12.0,0.,12.0,0.,12.0
1979-07-26 22:16:50.400 ,7,1,0.,12.0,0.,12.0,0.,12.0,0.,12.0
1979-07-26 22:17:02.400 ,7,1,0.,12.0,0.,12.0,0.,12.0,0.,12.0
1979-07-26 22:17:14.400 ,7,0,0.,12.0,0.,12.0,0.,12.0,0.,12.0
1979-07-26 22:17:26.400 ,7,0,0.,12.0,0.,12.0,0.,12.0,0.,12.0
1979-07-26 22:17:38.400 ,7,1,0.,12.0,0.,12.0,0.,12.0,0.,12.0
1979-07-26 22:17:50.400 ,7,1,0.,12.0,0.,12.0,0.,12.0,0.,12.0
1979-07-26 22:18:02.400 ,7,0,0.,12.0,0.,12.0,0.,12.0,0.,12.0
1979-07-26 22:18:14.400 ,7,0,0.,12.0,0.,12.0,0.,12.0,0.,12.0